Content
SEND FEEDBACK

Daily
Averages
Monthly
Summary
United Kingdom

HARTOGATE, ENGLAND


Home > Europe > United Kingdom > England
Elevation: 115 feet     Latitude: 54 08N     Longitude: 001 25W

WEATHER
 
SELECT A DAY
Number of Records: 64,959;   Date Range: 6/2/04 - 12/16/14
 
SHARE

PRINT THIS DATA

[ ← Previous Day ]
WEATHER ALMANAC - NOVEMBER 9, 2013
[ Next Day → ]
[ °C ]   °F
Weather ElementAverageHighLow
Temperature38.8 °F44.6 °F (12:50 pm)30.2 °F (11:50 pm)
Dewpoint36.3 °F40 °F (12:00 pm)30.2 °F (11:50 pm)
Humidity90 %100 % (6:50 am)75 % (3:00 am)
Barometer29.59 in29.63 in (9:00 am)29.56 in (1:50 pm)
Wind Speed6.9 mph11.5 mph (12:50 pm)
Weather ElementAverage
Visibility8.3 mi
Wind DirectionWSW (232.9 °)

Weather ElementTotal
Precipitation---
Heating Degree Days27.6 (Base 65)
Averaged from 31 records on November 9, 2013
WEATHER CONDITIONS BREAKOUT
WIND DIRECTION BREAKOUT
WEATHER BY HOUR - NOVEMBER 9, 2013
[ °C ]   °F
Local TimeTemperatureDewpointHumidityBarometerVisibilityWind DirectionWind SpeedGust SpeedPrecipitationEventsConditions
12:50 AM41.0 °F37.4 °F87 %29.59 in6.2 miWSW (250°)6.9 mphOvercast
1:50 AM41.0 °F35.6 °F81 %29.59 in6.2 miWest (260°)10.4 mphMostly Cloudy
2:50 AM39.2 °F35.6 °F87 %29.59 in6.2 miSW (230°)5.8 mphMostly Cloudy
3:00 AM40.0 °F35.0 °F75 %29.62 in19.0 miSW (230°)5.8 mphPartly Cloudy
3:50 AM39.2 °F35.6 °F87 %29.59 in6.2 miSW (230°)6.9 mphMostly Cloudy
4:50 AM39.2 °F35.6 °F87 %29.59 in6.2 miSW (230°)9.2 mphMostly Cloudy
5:50 AM37.4 °F35.6 °F93 %29.59 in6.2 miSSW (200°)5.8 mphMostly Cloudy
6:00 AM37.0 °F35.0 °F90 %29.62 in14.0 miSSW (200°)5.8 mphScattered Clouds
6:50 AM35.6 °F35.6 °F100 %29.62 in6.2 miSouth (190°)6.9 mphScattered Clouds
7:50 AM37.4 °F35.6 °F93 %29.59 in6.2 miSW (230°)10.4 mphScattered Clouds
8:50 AM39.2 °F37.4 °F93 %29.62 in6.2 miWSW (240°)8.1 mphMostly Cloudy
9:00 AM39.0 °F36.0 °F87 %29.63 in11.0 miWSW (240°)8.1 mphScattered Clouds
9:50 AM41.0 °F37.4 °F87 %29.62 in6.2 miSSW (200°)3.5 mphMostly Cloudy
10:50 AM41.0 °F37.4 °F87 %29.62 in6.2 miSSW (210°)4.6 mphScattered Clouds
11:50 AM42.8 °F39.2 °F87 %29.59 in6.2 miSW (220°)9.2 mphScattered Clouds
12:00 PM44.0 °F40.0 °F80 %29.61 in17.0 miSW (220°)9.2 mphScattered Clouds
12:50 PM44.6 °F39.2 °F81 %29.59 in6.2 miSSW (210°)11.5 mphPartly Cloudy
1:50 PM44.6 °F39.2 °F81 %29.56 in6.2 miSW (230°)8.1 mphMostly Cloudy
2:50 PM41.0 °F39.2 °F93 %29.56 in6.2 miSSW (200°)9.2 mphMostly Cloudy
3:00 PM41.0 °F39.0 °F90 %29.58 in15.0 miSSW (200°)9.2 mphScattered Clouds
3:50 PM41.0 °F39.2 °F93 %29.56 in4.3 miWNW (290°)2.3 mphScattered Clouds
4:50 PM39.2 °F37.4 °F93 %29.56 in6.2 miSSW (210°)3.5 mphMostly Cloudy
5:50 PM39.2 °F37.4 °F93 %29.56 in6.2 miSW (230°)6.9 mphMostly Cloudy
6:00 PM39.0 °F37.0 °F92 %29.57 in18.0 miSW (230°)6.9 mphMostly Cloudy
6:50 PM39.2 °F37.4 °F93 %29.56 in6.2 miSW (230°)1.2 mphMostly Cloudy
7:50 PM35.6 °F33.8 °F93 %29.56 in6.2 miWSW (240°)4.6 mphPartly Cloudy
8:50 PM33.8 °F33.8 °F100 %29.56 in6.2 miWest (270°)8.1 mph
9:00 PM34.0 °F33.0 °F94 %29.57 in16.0 miWest (270°)8.1 mph
9:50 PM33.8 °F32.0 °F93 %29.56 in6.2 miWest (270°)6.9 mph
10:50 PM32.0 °F32.0 °F100 %29.59 in6.2 miWest (260°)5.8 mph
11:50 PM30.2 °F30.2 °F100 %29.59 in6.2 miWNW (300°)3.5 mph
Hourly data recorded from EGXD, located miles away from Hartogate, England







STORIES FROM OUR PARTNERS